Regional Weather Roundup
Issued by NWS Newport/Morehead, NC

Current Version | Previous Version | Graphics & Text | Print | Product List | Glossary Off
Versions: 1 2 3 4 5 6 7 8 9 10 11 12 13 14 15 16 17 18 19 20 21 22 23 24 25 26 27 28 29 30 31 32 33 34 35 36 37 38 39 40 41 42 43 44 45 46 47 48 49 50

000
ASUS42 KMHX 050813
RWRMHX
WEATHER ROUNDUP FOR EASTERN NORTH CAROLINA
NATIONAL WEATHER SERVICE NEWPORT/MOREHEAD CITY NC
400 AM EDT WED AUG 05 2015

NOTE: "FAIR" INDICATES FEW OR NO CLOUDS BELOW 12,000 FEET
WITH NO SIGNIFICANT WEATHER AND/OR OBSTRUCTIONS TO VISIBILITY

NCZ015>017-031-032-045>047-102-103-050900-
NORTH COAST

CITY           SKY/WX    TMP DP  RH WIND       PRES   REMARKS
EDENTON          N/A     77  74  89 W6        29.94R
ELIZABETH CITY CLEAR     75  75 100 SW3       29.94R FOG
KITTY HAWK     PTSUNNY   77  74  91 CALM      29.94R FOG
MANTEO         MOCLDY    77  76  95 CALM      29.95R

$$

NCZ045>047-081-094-103-104-050900-
CENTRAL COAST

CITY           SKY/WX    TMP DP  RH WIND       PRES   REMARKS
FRISCO         CLOUDY    79  76  90 W8        29.94R
SWANQUARTER      N/A     79 N/A N/A W6G13     29.91S

$$

NCZ095-097-098-100-101-050900-
SOUTHERN COAST

CITY           SKY/WX    TMP DP  RH WIND       PRES   REMARKS
BEAUFORT       CLEAR     78  78 100 W8        29.97R
CEDAR ISLAND     N/A     77 N/A N/A SW3G10    30.00R
JACKSONVILLE   CLEAR     75  73  93 SW3       29.95S
PINEY ISLAND   PTSUNNY  N/A N/A N/A SW7       29.96R
WILMINGTON     PTCLDY    79  78  97 SW8       29.97S


$$

NCZ011>013-027>030-043-044-078>080-089-090>093-098-050900-
COASTAL PLAIN

CITY           SKY/WX    TMP DP  RH WIND       PRES   REMARKS
AHOSKIE        CLEAR    N/A N/A N/A CALM      29.94R
CLINTON        CLEAR     75  75 100 CALM      29.97S
ELIZABETHTOWN  CLEAR     77  77  99 S5        29.97S
GOLDSBORO      CLEAR     75  75 100 W3        29.94S
GREENVILLE     CLEAR     75  73  94 W6        29.97R
HAVELOCK       CLOUDY    76  75  97 SW5       29.97R
KENANSVILLE    CLEAR     73  71  96 CALM      29.97S
KINSTON        CLEAR     75  74  96 SW3       29.96S
NEW BERN       CLEAR     77  73  87 SW5       29.96S
RICHLANDS      CLEAR     72  66  83 SW3       29.96S
ROCKY MOUNT    CLEAR     74  73  97 SW6       29.96R
WASHINGTON     CLEAR     74  73  96 W5        29.95R
WHITEVILLE     CLEAR     78  76  94 SW3       29.97S

$$

AMZ130-135-150-152-154-156-158-170-250-252-270-ANZ085-086-088-633-658-670-050900-
MARINE OBSERVATIONS

STATION/POSITION TIME  TEMP    WIND        PRES    WAVE   SWELL
                       AIR SEA DIR/SP/G            HT/PER HT/PER
                 (UTC) (F)     (DEG/KT/KT) (MB)    (FT/S) (FT/S)
CHESAPEAKE LIGHT 0800   77     230/  9/  9 1013.9
64 E VA BEACH    0750   80 81  190/ 17/ 19 1013.2    5/ 6   2/11
DUCK             0700   79 62  250/ 10/ 13 1012.2
2 E DUCK         0711      64                N/A     3/ 6
OREGON INLET     0700   79 82  210/  6/  8 1013.3
13E OREGON INLT  0800      80                N/A     4/ 7   2/11
HATTERAS CG      0700   78 80  240/  5/  8 1012.7
DIAMOND BUOY     0750   81 84  260/ 17/ 21 1013.6    7/ 6   2/11
CAPE LOOKOUT     0800   80     250/ 14/ 17 1014.3
BEAUFORT LAB     0700   79 80  250/  6/ 10 1013.5
30 SE NEW RVR IN 0708   81 81  250/ 17/ 23 1014.6
27 SE WRIGHTSVLE 0700   78 82  250/ 17/ 19   N/A
5 SE WRIGHTSVLE  0708   82 81  240/ 14/ 17 1014.5
225 S CAPE HAT   0750   82 81  220/ 16/ 19 1017.9    6/ 7   3/11
41 SE CHARLESTON 0750   82 83  230/ 16/ 17 1015.6    4/ 5   2/ 8

$$



USA.gov is the U.S. government's official web portal to all federal, state and local government web resources and services.